Regional Weather Roundup
Issued by NWS

Home | Current Version | Previous Version | Graphics & Text | Print | Product List | Glossary On
Versions: 1 2 3 4 5 6 7 8 9 10 11 12 13 14 15 16 17 18 19 20 21 22 23 24 25 26 27 28 29 30 31 32 33 34 35 36 37 38 39 40 41 42 43 44 45 46 47 48 49 50
000
ASUS44 KMEG 230000
RWRTN
TENNESSEE HOURLY STATE WEATHER ROUNDUP
NATIONAL WEATHER SERVICE MEMPHIS TN
700 PM CDT FRI MAY 22 2015

TNZ002-004-019-021-049-052-054-088>092-230100-
WEST TENNESSEE

CITY           SKY/WX    TMP DP  RH WIND       PRES   REMARKS
MEMPHIS INTL   CLOUDY    72  47  40 NE9       30.22F
NWS MEMPHIS      N/A     70 N/A N/A MISG        N/A
JACKSON        PTSUNNY   70  51  51 CALM      30.23S
DYERSBURG      CLOUDY    70  43  37 CALM      30.24S
PARIS          SUNNY     66  48  52 E3        30.25F
LEXINGTON      CLEAR     68  50  52 CALM      30.24S
$$

TNZ008-025-027-028-033-062-065-066-230100-
NORTH MIDDLE TENNESSEE

CITY           SKY/WX    TMP DP  RH WIND       PRES   REMARKS
NASHVILLE      PTCLDY    72  43  35 E3        30.26R
CLARKSVILLE    CLEAR     71  46  40 NE3       30.26R
COOKEVILLE     CLEAR     70  48  46 CALM      30.26R
CROSSVILLE     CLEAR     67  44  43 N3        30.28S
$$

TNZ061-075-076-078-094-096-097-230100-
SOUTH MIDDLE TENNESSEE

CITY           SKY/WX    TMP DP  RH WIND       PRES   REMARKS
FAYETTEVILLE   CLEAR    N/A N/A N/A MISG      30.25R
TULLAHOMA      CLEAR     70  37  30 CALM      30.27R
WINCHESTER     CLEAR     68  46  45 N7        30.25R
SHELBYVILLE    CLEAR     70  52  52 N5        30.26R
$$

TNZ017-018-042-046-047-230100-
NORTHEAST TENNESSEE

CITY           SKY/WX    TMP DP  RH WIND       PRES   REMARKS
TRI CITIES     PTCLDY    69  41  36 CALM      30.27R
$$

TNZ012-013-036-069-073-074-230100-
CENTRAL EAST TENNESSEE

CITY           SKY/WX    TMP DP  RH WIND       PRES   REMARKS
KNOXVILLE      PTCLDY    70  39  32 N5        30.25R
OAK RIDGE      CLEAR     71  40  32 E5        30.27R
GATLINBURG     CLEAR     66  45  45 CALM      30.26R
$$

TNZ083-085-099-230100-
SOUTHEAST TENNESSEE

CITY           SKY/WX    TMP DP  RH WIND       PRES   REMARKS
CHATTANOOGA    PTCLDY    72  41  32 N9        30.23S
$$

SKY/WX REPORTED AS FAIR MEANS FEW OR NO CLOUDS BELOW
12 THOUSAND FEET.




USA.gov is the U.S. government's official web portal to all federal, state and local government web resources and services.